When you browse on this site, cookies collect data to enhance your experience and personalize the content and advertising you see.
Visit our Privacy Policy to learn more. By continuing to use the site, you agree to this use of cookies and data.
  • In Sweden
  • List of Countries
  • For 7 days
  • Water Temperature
  • Satellite Maps
  • Weather Map
  • Weather Widgets
  • user-avatar
    Login

    Hourly Weather Clifton

    Today, 24 May, Friday

    Time Temperature Precipitation Wind Pressure Humidity
    00:00 +21°C° 0.1 mm 4 mps 753 mmHg 80%
    01:00 +21°C° 0.1 mm 5 mps 753 mmHg 79%
    02:00 +20°C° 0 mm 5 mps 753 mmHg 76%
    03:00 +20°C° 0 mm 5 mps 753 mmHg 74%
    04:00 +19°C° 0 mm 5 mps 753 mmHg 72%
    05:00 +17°C° 0 mm 6 mps 753 mmHg 68%
    06:00 +17°C° 0 mm 6 mps 754 mmHg 65%
    07:00 +17°C° 0 mm 7 mps 754 mmHg 62%
    08:00 +18°C° 0 mm 7 mps 754 mmHg 57%
    09:00 +20°C° 0 mm 7 mps 755 mmHg 53%
    10:00 +21°C° 0 mm 7 mps 755 mmHg 49%
    11:00 +21°C° 0 mm 7 mps 755 mmHg 46%
    12:00 +22°C° 0 mm 7 mps 755 mmHg 44%
    13:00 +23°C° 0 mm 7 mps 755 mmHg 42%
    14:00 +23°C° 0 mm 7 mps 756 mmHg 43%
    15:00 +23°C° 0 mm 7 mps 756 mmHg 43%
    16:00 +24°C° 0 mm 6 mps 756 mmHg 43%
    17:00 +23°C° 0 mm 6 mps 757 mmHg 47%
    18:00 +22°C° 0 mm 5 mps 757 mmHg 51%
    19:00 +21°C° 0 mm 4 mps 758 mmHg 55%
    20:00 +20°C° 0 mm 4 mps 759 mmHg 58%
    21:00 +19°C° 0 mm 3 mps 759 mmHg 60%
    22:00 +18°C° 0 mm 3 mps 760 mmHg 63%
    23:00 +18°C° 0 mm 3 mps 760 mmHg 64%

    Tomorrow, 25 May, Saturday

    Time Temperature Precipitation Wind Pressure Humidity
    00:00 +17°C° 0 mm 2 mps 761 mmHg 65%
    01:00 +16°C° 0 mm 2 mps 761 mmHg 67%
    02:00 +16°C° 0 mm 2 mps 761 mmHg 69%
    03:00 +15°C° 0 mm 1 mps 761 mmHg 71%
    04:00 +15°C° 0 mm 1 mps 762 mmHg 73%
    05:00 +16°C° 0 mm 1 mps 762 mmHg 69%
    06:00 +18°C° 0 mm 1 mps 762 mmHg 66%
    07:00 +17°C° 0 mm 0 mps 763 mmHg 62%
    08:00 +20°C° 0 mm 1 mps 763 mmHg 56%
    09:00 +21°C° 0 mm 2 mps 763 mmHg 49%
    10:00 +23°C° 0 mm 2 mps 763 mmHg 43%
    11:00 +24°C° 0 mm 3 mps 762 mmHg 41%
    12:00 +25°C° 0 mm 3 mps 762 mmHg 39%
    13:00 +25°C° 0 mm 4 mps 761 mmHg 37%
    14:00 +25°C° 0 mm 4 mps 761 mmHg 38%
    15:00 +25°C° 0 mm 5 mps 760 mmHg 38%
    16:00 +25°C° 0 mm 5 mps 760 mmHg 39%
    17:00 +23°C° 0 mm 5 mps 760 mmHg 43%
    18:00 +22°C° 0 mm 5 mps 760 mmHg 47%
    19:00 +20°C° 0 mm 5 mps 759 mmHg 51%
    20:00 +20°C° 0.1 mm 5 mps 759 mmHg 56%
    21:00 +19°C° 0.1 mm 5 mps 759 mmHg 61%
    22:00 +18°C° 0.1 mm 4 mps 759 mmHg 67%
    23:00 +18°C° 0.4 mm 4 mps 758 mmHg 70%

    Day after tomorrow, 26 May, Sunday

    Time Temperature Precipitation Wind Pressure Humidity
    00:00 +18°C° 0.4 mm 4 mps 758 mmHg 74%
    01:00 +18°C° 0.4 mm 4 mps 757 mmHg 78%
    02:00 +18°C° 0.2 mm 4 mps 757 mmHg 80%
    03:00 +18°C° 0.2 mm 4 mps 756 mmHg 82%
    04:00 +18°C° 0.2 mm 4 mps 756 mmHg 83%
    05:00 +19°C° 0 mm 4 mps 756 mmHg 83%
    06:00 +19°C° 0 mm 3 mps 756 mmHg 82%
    07:00 +20°C° 0 mm 3 mps 756 mmHg 81%
    08:00 +24°C° 0 mm 3 mps 755 mmHg 74%
    09:00 +26°C° 0 mm 3 mps 755 mmHg 67%
    10:00 +28°C° 0 mm 2 mps 755 mmHg 60%
    11:00 +30°C° 0 mm 3 mps 755 mmHg 54%
    12:00 +31°C° 0 mm 3 mps 755 mmHg 47%
    13:00 +34°C° 0 mm 3 mps 754 mmHg 41%
    14:00 +34°C° 0 mm 3 mps 754 mmHg 39%
    15:00 +35°C° 0 mm 3 mps 754 mmHg 38%
    16:00 +35°C° 0 mm 3 mps 753 mmHg 36%
    17:00 +33°C° 0 mm 3 mps 753 mmHg 42%
    18:00 +31°C° 0 mm 3 mps 753 mmHg 47%
    19:00 +30°C° 0 mm 3 mps 753 mmHg 52%
    20:00 +29°C° 0 mm 3 mps 754 mmHg 57%
    21:00 +28°C° 0 mm 3 mps 754 mmHg 61%
    22:00 +26°C° 0 mm 3 mps 754 mmHg 65%
    23:00 +26°C° 0 mm 3 mps 754 mmHg 65%

    27 May, Monday

    Time Temperature Precipitation Wind Pressure Humidity
    00:00 +25°C° 0 mm 3 mps 754 mmHg 66%
    01:00 +24°C° 0 mm 2 mps 753 mmHg 66%
    02:00 +24°C° 0 mm 2 mps 753 mmHg 65%
    03:00 +23°C° 0 mm 2 mps 754 mmHg 65%
    04:00 +21°C° 0 mm 2 mps 754 mmHg 64%
    05:00 +23°C° 0 mm 2 mps 754 mmHg 62%
    06:00 +23°C° 0 mm 2 mps 754 mmHg 60%
    07:00 +23°C° 0 mm 2 mps 754 mmHg 58%
    08:00 +24°C° 0 mm 2 mps 754 mmHg 52%
    09:00 +26°C° 0 mm 3 mps 755 mmHg 46%
    10:00 +27°C° 0 mm 3 mps 755 mmHg 41%
    11:00 +28°C° 0 mm 3 mps 755 mmHg 37%
    12:00 +29°C° 0 mm 3 mps 754 mmHg 34%
    13:00 +30°C° 0 mm 3 mps 754 mmHg 31%
    14:00 +30°C° 0 mm 3 mps 754 mmHg 30%
    15:00 +30°C° 0 mm 2 mps 754 mmHg 30%
    16:00 +31°C° 0 mm 2 mps 754 mmHg 30%
    17:00 +29°C° 0 mm 2 mps 754 mmHg 34%
    18:00 +28°C° 0 mm 2 mps 754 mmHg 38%
    19:00 +26°C° 0 mm 2 mps 755 mmHg 42%
    20:00 +25°C° 0 mm 2 mps 755 mmHg 46%
    21:00 +24°C° 0 mm 2 mps 756 mmHg 50%
    22:00 +23°C° 0 mm 2 mps 756 mmHg 54%
    23:00 +21°C° 0 mm 2 mps 756 mmHg 58%

    28 May, Tuesday

    Time Temperature Precipitation Wind Pressure Humidity
    00:00 +21°C° 0 mm 2 mps 756 mmHg 62%
    01:00 +20°C° 0 mm 2 mps 755 mmHg 66%
    02:00 +20°C° 0 mm 2 mps 755 mmHg 68%
    03:00 +19°C° 0 mm 2 mps 755 mmHg 70%
    04:00 +19°C° 0 mm 2 mps 755 mmHg 72%
    05:00 +20°C° 0 mm 2 mps 755 mmHg 70%
    06:00 +20°C° 0 mm 3 mps 755 mmHg 68%
    07:00 +21°C° 0 mm 3 mps 755 mmHg 65%
    08:00 +20°C° 0.6 mm 3 mps 755 mmHg 69%
    09:00 +20°C° 0.6 mm 4 mps 755 mmHg 72%
    10:00 +19°C° 0.6 mm 4 mps 754 mmHg 76%
    11:00 +21°C° 0.1 mm 4 mps 754 mmHg 72%
    12:00 +22°C° 0.1 mm 5 mps 753 mmHg 68%
    13:00 +23°C° 0.1 mm 5 mps 753 mmHg 64%
    14:00 +25°C° 1 mm 4 mps 752 mmHg 67%
    15:00 +25°C° 1 mm 4 mps 752 mmHg 69%
    16:00 +26°C° 1 mm 3 mps 752 mmHg 71%
    17:00 +26°C° 2.7 mm 3 mps 752 mmHg 73%
    18:00 +26°C° 2.7 mm 3 mps 752 mmHg 75%
    19:00 +25°C° 2.7 mm 2 mps 752 mmHg 77%
    20:00 +25°C° 1.2 mm 2 mps 752 mmHg 78%
    21:00 +25°C° 1.2 mm 2 mps 752 mmHg 79%
    22:00 +24°C° 1.2 mm 3 mps 752 mmHg 80%
    23:00 +24°C° 0 mm 2 mps 752 mmHg 82%

    29 May, Wednesday

    Time Temperature Precipitation Wind Pressure Humidity
    00:00 +24°C° 0 mm 2 mps 752 mmHg 84%
    01:00 +23°C° 0 mm 2 mps 751 mmHg 86%
    02:00 +23°C° 0.3 mm 2 mps 751 mmHg 87%
    03:00 +23°C° 0.3 mm 2 mps 751 mmHg 88%
    04:00 +23°C° 0.3 mm 2 mps 751 mmHg 89%
    05:00 +23°C° 0 mm 1 mps 752 mmHg 87%
    06:00 +24°C° 0 mm 1 mps 752 mmHg 84%
    07:00 +25°C° 0 mm 1 mps 752 mmHg 81%
    08:00 +27°C° 0 mm 1 mps 752 mmHg 73%
    09:00 +29°C° 0 mm 1 mps 752 mmHg 66%
    10:00 +30°C° 0 mm 2 mps 752 mmHg 58%
    11:00 +32°C° 0 mm 2 mps 752 mmHg 53%
    12:00 +34°C° 0 mm 3 mps 751 mmHg 48%
    13:00 +35°C° 0 mm 4 mps 751 mmHg 43%
    14:00 +36°C° 0 mm 4 mps 751 mmHg 42%
    15:00 +36°C° 0 mm 4 mps 750 mmHg 41%
    16:00 +36°C° 0 mm 5 mps 750 mmHg 40%
    17:00 +35°C° 0 mm 4 mps 750 mmHg 44%
    18:00 +34°C° 0 mm 3 mps 750 mmHg 48%
    19:00 +32°C° 0 mm 2 mps 750 mmHg 52%
    20:00 +31°C° 0.3 mm 3 mps 750 mmHg 55%
    21:00 +30°C° 0.3 mm 3 mps 750 mmHg 58%
    22:00 +30°C° 0.3 mm 3 mps 750 mmHg 60%
    23:00 +29°C° 0 mm 3 mps 750 mmHg 60%
    Show more